Weather History for Wenatchee, WA

Change the Weather History Date:

Tuesday, August 21, 2012

  Actual Average Record
Temperature  
Mean Temperature 79 °F 66 °F  
Max Temperature 91 °F 82 °F 100 °F (2005)
Min Temperature 66 °F 49 °F 44 °F (2013)
Degree Days  
Heating Degree Days 0 2  
Month to date heating degree days 0 27  
Since 1 June heating degree days 98 266  
Since 1 July heating degree days 2 79  
Cooling Degree Days 14 3  
Month to date cooling degree days 323 84  
Year to date cooling degree days 760 213  
Since 1 June cooling degree days 734 208  
Growing Degree Days 28 (Base 50)    
Moisture  
Dew Point 43 °F    
Average Humidity 31    
Maximum Humidity 44    
Minimum Humidity 17    
Precipitation  
Precipitation 0.00 in 0.02 in 0.34 in (1990)
Month to date precipitation T 0.30  
Year to date precipitation 5.42 10.25  
Snow  
Snow 0.00 in 0.00 in - ()
Month to date snowfall 0.0  
Since 1 June snowfall 0.0  
Since 1 July snowfall 0.0  
Snow Depth -    
Sea Level Pressure  
Sea Level Pressure 29.81 in    
Wind  
Wind Speed 10 mph (WNW)    
Max Wind Speed 26 mph    
Max Gust Speed -    
Visibility 10 miles    
Events      
T = Trace of Precipitation, MM = Missing Value Source: NWS Daily Summary

Daily Weather History Graph

Daily Weather History Graph

Search for Another Location

Airport:

Trip Planner

Search our weather history database for the weather conditions in past years. The results will help you decide how hot, cold, wet, or windy it might be!

Date:

Astronomy

Aug. 21, 2012 Rise Set
Actual Time 6:05 AM PDT 8:00 PM PDT
Civil Twilight 5:32 AM PDT 8:33 PM PDT
Nautical Twilight 4:52 AM PDT 9:13 PM PDT
Astronomical Twilight 4:07 AM PDT 9:58 PM PDT
Moon 11:07 AM PDT 9:37 PM PDT
Length of Visible Light 15h 00m
Length of Day
13h 54m
Waxing Crescent, 20% of the Moon is Illuminated
Aug 21
Waxing Crescent
Aug 24
First Quarter
Aug 31
Full
Sep 8
Last Quarter
Sep 15
New

Hourly Weather History & Observations

Time (PDT) Temp. Dew Point Humidity Pressure Visibility Wind Dir Wind Speed Gust Speed Precip Events Conditions
12:55 AM 72.0 °F 44.1 °F 37% 29.83 in 10.0 mi NW 6.9 mph - N/A   Clear
1:55 AM 70.0 °F 44.1 °F 39% 29.83 in 10.0 mi Calm Calm - N/A   Clear
2:55 AM 71.1 °F 44.1 °F 38% 29.82 in 10.0 mi NNW 8.1 mph - N/A   Clear
3:55 AM 70.0 °F 44.1 °F 39% 29.82 in 10.0 mi NNW 9.2 mph - N/A   Clear
4:55 AM 70.0 °F 43.0 °F 38% 29.82 in 10.0 mi WNW 5.8 mph - N/A   Clear
5:55 AM 69.1 °F 43.0 °F 39% 29.82 in 10.0 mi NNW 9.2 mph - N/A   Clear
6:55 AM 68.0 °F 43.0 °F 40% 29.82 in 10.0 mi SSW 8.1 mph - N/A   Clear
7:55 AM 71.1 °F 44.1 °F 38% 29.83 in 10.0 mi WNW 6.9 mph - N/A   Clear
8:55 AM 71.1 °F 46.9 °F 42% 29.85 in 10.0 mi SW 5.8 mph - N/A   Clear
9:55 AM 71.1 °F 48.0 °F 44% 29.84 in 10.0 mi WSW 5.8 mph - N/A   Clear
10:55 AM 75.9 °F 45.0 °F 33% 29.83 in 10.0 mi WNW 4.6 mph - N/A   Clear
11:55 AM 80.1 °F 45.0 °F 29% 29.81 in 10.0 mi Calm Calm - N/A   Clear
12:55 PM 84.0 °F 42.1 °F 23% 29.80 in 10.0 mi South 3.5 mph - N/A   Clear
1:55 PM 86.0 °F 41.0 °F 20% 29.78 in 10.0 mi SE 8.1 mph - N/A   Clear
2:55 PM 89.1 °F 42.1 °F 19% 29.76 in 10.0 mi East 6.9 mph - N/A   Clear
3:55 PM 89.1 °F 39.9 °F 18% 29.75 in 10.0 mi West 5.8 mph - N/A   Clear
4:55 PM 91.0 °F 41.0 °F 17% 29.74 in 10.0 mi West 13.8 mph - N/A   Clear
5:55 PM 88.0 °F 39.0 °F 18% 29.74 in 10.0 mi West 11.5 mph - N/A   Clear
6:55 PM 84.0 °F 44.1 °F 25% 29.75 in 10.0 mi WNW 20.7 mph - N/A   Clear
7:55 PM 75.0 °F 46.9 °F 37% 29.79 in 10.0 mi NW 23.0 mph - N/A   Clear
8:55 PM 71.1 °F 44.1 °F 38% 29.84 in 10.0 mi WNW 17.3 mph - N/A   Clear
9:55 PM 69.1 °F 42.1 °F 38% 29.86 in 10.0 mi WNW 17.3 mph - N/A   Clear
10:55 PM 66.0 °F 41.0 °F 40% 29.85 in 10.0 mi West 13.8 mph - N/A   Clear
11:55 PM 66.0 °F 39.9 °F 38% 29.84 in 10.0 mi West 11.5 mph - N/A   Clear